| time (UTC) | temp F | wind direction | speed knots | gust knots | rain 1hr in | rain 24hr in | rain mn in | humidity % | barometer mb |
| 20260503211555 | 62 | 9 | 5.2 | 9.6 | 0.00 | 0.00 | 0.00 | 69 | 1014.2 |
| 20260503210022 | 63 | 9 | 6.1 | 10.4 | 0.00 | 0.00 | 0.00 | 68 | 1014.2 |
| 20260503204558 | 63 | 9 | 6.1 | 11.3 | 0.00 | 0.00 | 0.00 | 69 | 1014.4 |
| 20260503203024 | 61 | 9 | 5.2 | 10.4 | 0.00 | 0.00 | 0.00 | 71 | 1014.3 |
| 20260503201546 | 61 | 9 | 7.0 | 11.3 | 0.00 | 0.00 | 0.00 | 74 | 1014.6 |
| 20260503200012 | 60 | 9 | 4.3 | 9.6 | 0.00 | 0.00 | 0.00 | 77 | 1014.5 |
| 20260503194546 | 60 | 9 | 4.3 | 8.7 | 0.00 | 0.00 | 0.00 | 77 | 1014.6 |
| 20260503193013 | 61 | 9 | 4.3 | 7.0 | 0.00 | 0.00 | 0.00 | 76 | 1014.8 |
| 20260503191538 | 61 | 9 | 3.5 | 8.7 | 0.00 | 0.00 | 0.00 | 76 | 1014.8 |
| 20260503190005 | 61 | 9 | 0.9 | 6.1 | 0.00 | 0.00 | 0.00 | 75 | 1014.8 |
| 20260503184535 | 61 | 9 | 1.7 | 7.0 | 0.00 | 0.00 | 0.00 | 77 | 1014.9 |
| 20260503183009 | 61 | 9 | 0.9 | 6.1 | 0.00 | 0.00 | 0.00 | 76 | 1014.8 |
| 20260503181525 | 60 | 9 | 4.3 | 7.8 | 0.00 | 0.00 | 0.00 | 74 | 1015.0 |
| 20260503180101 | 61 | 9 | 0.0 | 3.5 | 0.00 | 0.00 | 0.00 | 73 | 1014.9 |
| 20260503174528 | 60 | 9 | 0.9 | 5.2 | 0.00 | 0.00 | 0.00 | 74 | 1014.8 |
| 20260503173115 | 59 | 9 | 0.0 | 0.9 | 0.00 | 0.00 | 0.00 | 78 | 1014.7 |
| 20260503171533 | 58 | 9 | 0.0 | 0.0 | 0.00 | 0.00 | 0.00 | 83 | 1014.7 |
| 20260503014553 | 58 | 9 | 2.6 | 7.0 | 0.00 | 0.00 | 0.00 | 84 | 1012.0 |
| 20260503013004 | 58 | 9 | 2.6 | 7.0 | 0.00 | 0.00 | 0.00 | 84 | 1012.0 |
| 20260503004528 | 59 | 9 | 3.5 | 6.1 | 0.00 | 0.00 | 0.00 | 82 | 1012.1 |
| 20260503003057 | 59 | 9 | 4.3 | 8.7 | 0.00 | 0.00 | 0.00 | 81 | 1012.1 |
| 20260502224506 | 59 | 9 | 4.3 | 8.7 | 0.00 | 0.00 | 0.00 | 82 | 1013.0 |
| 20260502223040 | 59 | 9 | 3.5 | 8.7 | 0.00 | 0.00 | 0.00 | 83 | 1013.2 |
| 20260502221601 | 59 | 9 | 4.3 | 7.8 | 0.00 | 0.00 | 0.00 | 80 | 1013.4 |
| 20260502220031 | 59 | 9 | 4.3 | 7.8 | 0.00 | 0.00 | 0.00 | 80 | 1013.5 |
| 20260502214503 | 59 | 9 | 4.3 | 8.7 | 0.00 | 0.00 | 0.00 | 81 | 1013.9 |
| 20260502213033 | 59 | 9 | 3.5 | 8.7 | 0.00 | 0.00 | 0.00 | 81 | 1014.1 |